Tracking 29892 objects as of 21-Nov-2024
HD Live streaming from Space Station
objects crossing your sky now

SL-8 R/B

Track SL-8 R/B now!
10-day predictions


NORAD ID: 13386
Int'l Code: 1982-073J
Perigee: 1,470.8 km
Apogee: 1,718.5 km
Inclination: 74.0 °
Period: 117.9 minutes
Semi major axis: 7965 km
RCS: 5.8762 m2 (large)
Launch date: July 21, 1982
Source: Commonwealth of Independent States (former USSR) (CIS)
Launch site: PLESETSK MISSILE AND SPACE COMPLEX (PKMTR)

Note: This is a ROCKET BODY
Your satellite tracking list
Your tracking list is empty




NASA's NSSDC Master Catalog

Two Line Element Set (TLE):
1 13386U 82073J   24325.56866649  .00000036  00000-0  46777-3 0  9990
2 13386  74.0060 354.7918 0155470 255.7998 275.4283 12.21146663887448
Source of the keplerian elements: AFSPC